STARLINK-1210, 45207

Orbit data source: Space-Track

STARLINK-1210, 45207 is a payload satellite owned by SpaceX/Seattle (US) in LEO that was launched on Mon, 17 Feb 2020 UTC via an FALCON 9 launch vehicle from the Air Force Eastern Test Range (AFETR). Payload-class satellites include a variety of spacecraft equipped with specific instruments for various scientific and technological missions. These include communications satellites like Starlink; space stations such as the ISS; scientific satellites like the Hubble; Earth observation satellites from companies like Planet Labs, Umbra, and HawkEye 360; GPS; miniature CubeSats for education and research; and military/defense satellites.

Not visible in the next 10 days
Identifier
45207, 2020-012AF
Orbit
LEO
Country
Flag of USUS
Related business
Manufacturer
SpaceX/Seattle
Mission
Partially operational Commercial Communications
Bus & Motor
STARLINK, Unknown motor
Mass
260 kg wet, ~248 kg dry
Launch date (UTC)
2020-02-17 (6 years ago)
Launch vehicle
FALCON 9
Launch site
Air Force Eastern Test Range (AFETR)
Object type
Payload
Rocket body
Debris
Shape & HBR
Box + 1 Pan, 10.1 m
Radar Cross Section
13.562 m², Large (>1 m²)

Expand to show TLE details & history
Last TLE update: 14 hours ago

TLE from 14 hours ago
0 STARLINK-1210
1 45207U 20012AF  25348.33336806  .00077025  00000-0  66408-3 0  9995
2 45207  53.0212 332.0407 0002954 142.6033 267.4938 15.68605346  5852
Epoch: 2025-12-14T08:00Z
TLE epoch observation values (Epoch: 2025-12-14T08:00:03.000Z)
Latitude
37.89755°
Longitude
164.43061°
Altitude
366.109 km
Speed
7.695 km/s
True Right ascension
00h 30m 45s
True Declination
37° 43' 17"
Sunlit
Object was in full shadow at epoch
Visualization orbit readout
Latitude
Unknown
Longitude
Unknown
Altitude
Unknown
Speed
Unknown
Apparent Right ascension
Unknown
Apparent Declination
Unknown
Sunlit
N/A
Visualization observer readout
Local Sidereal Time
20:42:46
Azimuth
Unknown
Elevation
Unknown
Doppler factor
Unknown
Orbital elements
Apogee altitude
365.164 km
Perigee altitude
361.182 km
Semi-major axis
6,741.31 km
Eccentricity
0.0003
Inclination
53.0212°
RAAN
332.0407°
Arg. of periapsis
142.6033°
True anomaly
267.45998°
Mean anomaly
267.4938°
Eccentric anomaly
267.47689°
Mean motion
3.92127 °/min
Orbital period
91.81 mins
BSTAR
0.00066408
Loading maneuver chart data...
Computing Atmospheric mass density...

Documentation

Showing up to 5 results
|